• In Hungary
  • List of Countries
  • For 7 days
  • Water Temperature
  • Satellite Maps
  • Weather Map
  • News
  • Weather Widgets
  • user-avatar
    Login

    Hourly Weather Ibarra

    Today, 20 August, Monday

    Time Temperature Precipitation Wind Pressure Humidity
    00:00 +12°C° 0 mm 2 mps 570 mmHg 71%
    01:00 +12°C° 0 mm 2 mps 570 mmHg 74%
    02:00 +12°C° 0 mm 2 mps 570 mmHg 74%
    03:00 +12°C° 0 mm 2 mps 570 mmHg 75%
    04:00 +12°C° 0 mm 2 mps 569 mmHg 76%
    05:00 +12°C° 0 mm 3 mps 570 mmHg 75%
    06:00 +12°C° 0 mm 3 mps 570 mmHg 75%
    07:00 +12°C° 0 mm 3 mps 570 mmHg 74%
    08:00 +14°C° 0 mm 3 mps 571 mmHg 68%
    09:00 +17°C° 0 mm 4 mps 572 mmHg 61%
    10:00 +19°C° 0 mm 4 mps 573 mmHg 55%
    11:00 +20°C° 0 mm 4 mps 573 mmHg 54%
    12:00 +20°C° 0 mm 4 mps 573 mmHg 54%
    13:00 +21°C° 0 mm 4 mps 573 mmHg 53%
    14:00 +20°C° 0.1 mm 4 mps 572 mmHg 55%
    15:00 +20°C° 0.1 mm 4 mps 572 mmHg 57%
    16:00 +19°C° 0.1 mm 4 mps 571 mmHg 59%
    17:00 +18°C° 0.1 mm 3 mps 571 mmHg 64%
    18:00 +16°C° 0.1 mm 3 mps 570 mmHg 70%
    19:00 +14°C° 0.1 mm 2 mps 570 mmHg 75%
    20:00 +14°C° 0.1 mm 2 mps 570 mmHg 76%
    21:00 +14°C° 0.1 mm 2 mps 571 mmHg 77%
    22:00 +14°C° 0.1 mm 2 mps 571 mmHg 78%
    23:00 +13°C° 0.2 mm 2 mps 571 mmHg 79%

    Tomorrow, 21 August, Tuesday

    Time Temperature Precipitation Wind Pressure Humidity
    00:00 +13°C° 0.2 mm 2 mps 571 mmHg 80%
    01:00 +13°C° 0.2 mm 2 mps 570 mmHg 81%
    02:00 +13°C° 0.2 mm 2 mps 570 mmHg 81%
    03:00 +13°C° 0.2 mm 2 mps 570 mmHg 82%
    04:00 +13°C° 0.2 mm 2 mps 569 mmHg 82%
    05:00 +13°C° 0.2 mm 2 mps 570 mmHg 81%
    06:00 +12°C° 0.2 mm 3 mps 570 mmHg 80%
    07:00 +12°C° 0.2 mm 3 mps 570 mmHg 79%
    08:00 +14°C° 0.3 mm 3 mps 571 mmHg 73%
    09:00 +17°C° 0.3 mm 3 mps 572 mmHg 68%
    10:00 +19°C° 0.3 mm 4 mps 573 mmHg 63%
    11:00 +19°C° 0.4 mm 4 mps 573 mmHg 62%
    12:00 +19°C° 0.4 mm 4 mps 573 mmHg 62%
    13:00 +20°C° 0.4 mm 3 mps 572 mmHg 62%
    14:00 +19°C° 0.3 mm 3 mps 572 mmHg 63%
    15:00 +19°C° 0.3 mm 3 mps 571 mmHg 64%
    16:00 +18°C° 0.3 mm 3 mps 571 mmHg 65%
    17:00 +17°C° 0.3 mm 3 mps 570 mmHg 70%
    18:00 +16°C° 0.3 mm 2 mps 570 mmHg 74%
    19:00 +14°C° 0.3 mm 2 mps 570 mmHg 79%
    20:00 +14°C° 0.1 mm 2 mps 570 mmHg 79%
    21:00 +14°C° 0.1 mm 2 mps 571 mmHg 80%
    22:00 +13°C° 0.1 mm 2 mps 571 mmHg 80%
    23:00 +13°C° 0.3 mm 2 mps 571 mmHg 81%

    Day after tomorrow, 22 August, Wednesday

    Time Temperature Precipitation Wind Pressure Humidity
    00:00 +13°C° 0.3 mm 2 mps 571 mmHg 82%
    01:00 +13°C° 0.3 mm 2 mps 571 mmHg 83%
    02:00 +13°C° 0.6 mm 2 mps 570 mmHg 84%
    03:00 +13°C° 0.6 mm 2 mps 570 mmHg 84%
    04:00 +13°C° 0.6 mm 2 mps 570 mmHg 85%
    05:00 +13°C° 0.8 mm 2 mps 570 mmHg 84%
    06:00 +13°C° 0.8 mm 2 mps 570 mmHg 83%
    07:00 +14°C° 0.8 mm 2 mps 570 mmHg 82%
    08:00 +14°C° 0.5 mm 3 mps 571 mmHg 77%
    09:00 +16°C° 0.5 mm 3 mps 572 mmHg 72%
    10:00 +17°C° 0.5 mm 3 mps 573 mmHg 68%
    11:00 +18°C° 0.2 mm 3 mps 573 mmHg 66%
    12:00 +18°C° 0.2 mm 3 mps 573 mmHg 65%
    13:00 +19°C° 0.2 mm 3 mps 573 mmHg 63%
    14:00 +19°C° 0.4 mm 3 mps 572 mmHg 63%
    15:00 +19°C° 0.4 mm 3 mps 571 mmHg 63%
    16:00 +18°C° 0.4 mm 3 mps 571 mmHg 63%
    17:00 +17°C° 0.6 mm 2 mps 570 mmHg 69%
    18:00 +15°C° 0.6 mm 2 mps 570 mmHg 74%
    19:00 +14°C° 0.6 mm 2 mps 570 mmHg 80%
    20:00 +13°C° 0.2 mm 2 mps 570 mmHg 80%
    21:00 +13°C° 0.2 mm 2 mps 571 mmHg 80%
    22:00 +13°C° 0.2 mm 2 mps 571 mmHg 80%
    23:00 +13°C° 0.1 mm 2 mps 571 mmHg 80%

    23 August, Thursday

    Time Temperature Precipitation Wind Pressure Humidity
    00:00 +13°C° 0.1 mm 2 mps 570 mmHg 80%
    01:00 +12°C° 0.1 mm 2 mps 570 mmHg 80%
    02:00 +12°C° 0 mm 2 mps 569 mmHg 79%
    03:00 +12°C° 0 mm 2 mps 569 mmHg 78%
    04:00 +10°C° 0 mm 2 mps 568 mmHg 77%
    05:00 +12°C° 0 mm 2 mps 569 mmHg 76%
    06:00 +12°C° 0 mm 2 mps 569 mmHg 74%
    07:00 +13°C° 0 mm 2 mps 570 mmHg 73%
    08:00 +14°C° 0 mm 3 mps 571 mmHg 67%
    09:00 +17°C° 0 mm 3 mps 572 mmHg 60%
    10:00 +19°C° 0 mm 3 mps 574 mmHg 54%
    11:00 +20°C° 0.1 mm 3 mps 573 mmHg 54%
    12:00 +20°C° 0.1 mm 3 mps 573 mmHg 54%
    13:00 +20°C° 0.1 mm 3 mps 573 mmHg 54%
    14:00 +20°C° 0.4 mm 3 mps 572 mmHg 57%
    15:00 +19°C° 0.4 mm 3 mps 571 mmHg 59%
    16:00 +19°C° 0.4 mm 2 mps 570 mmHg 62%
    17:00 +17°C° 0.4 mm 2 mps 570 mmHg 68%
    18:00 +15°C° 0.4 mm 2 mps 569 mmHg 74%
    19:00 +13°C° 0.4 mm 1 mps 569 mmHg 81%
    20:00 +13°C° 0.1 mm 1 mps 569 mmHg 80%
    21:00 +13°C° 0.1 mm 1 mps 570 mmHg 79%
    22:00 +13°C° 0.1 mm 1 mps 570 mmHg 78%
    23:00 +12°C° 0 mm 1 mps 570 mmHg 78%

    24 August, Friday

    Time Temperature Precipitation Wind Pressure Humidity
    00:00 +12°C° 0 mm 1 mps 570 mmHg 79%
    01:00 +12°C° 0 mm 1 mps 569 mmHg 80%
    02:00 +12°C° 0 mm 1 mps 569 mmHg 80%
    03:00 +12°C° 0 mm 2 mps 569 mmHg 80%
    04:00 +12°C° 0 mm 2 mps 568 mmHg 81%
    05:00 +12°C° 0 mm 2 mps 569 mmHg 79%
    06:00 +13°C° 0 mm 2 mps 569 mmHg 77%
    07:00 +13°C° 0 mm 2 mps 570 mmHg 76%
    08:00 +15°C° 0 mm 2 mps 571 mmHg 69%
    09:00 +17°C° 0 mm 3 mps 572 mmHg 63%
    10:00 +19°C° 0 mm 3 mps 573 mmHg 57%
    11:00 +20°C° 0.3 mm 3 mps 573 mmHg 57%
    12:00 +20°C° 0.3 mm 3 mps 572 mmHg 57%
    13:00 +20°C° 0.3 mm 3 mps 572 mmHg 57%
    14:00 +20°C° 0.6 mm 3 mps 571 mmHg 60%
    15:00 +19°C° 0.6 mm 3 mps 571 mmHg 63%
    16:00 +18°C° 0.6 mm 3 mps 570 mmHg 66%
    17:00 +17°C° 0.8 mm 2 mps 570 mmHg 71%
    18:00 +15°C° 0.8 mm 2 mps 570 mmHg 75%
    19:00 +14°C° 0.8 mm 2 mps 570 mmHg 80%
    20:00 +14°C° 0.1 mm 2 mps 570 mmHg 81%
    21:00 +14°C° 0.1 mm 2 mps 570 mmHg 81%
    22:00 +13°C° 0.1 mm 2 mps 570 mmHg 82%
    23:00 +13°C° 0 mm 2 mps 570 mmHg 83%

    25 August, Saturday

    Time Temperature Precipitation Wind Pressure Humidity
    00:00 +13°C° 0 mm 1 mps 570 mmHg 84%
    01:00 +13°C° 0 mm 1 mps 570 mmHg 84%
    02:00 +13°C° 0 mm 1 mps 569 mmHg 84%
    03:00 +13°C° 0 mm 1 mps 569 mmHg 84%
    04:00 +13°C° 0 mm 1 mps 569 mmHg 84%
    05:00 +13°C° 0 mm 2 mps 570 mmHg 83%
    06:00 +13°C° 0 mm 2 mps 570 mmHg 81%
    07:00 +14°C° 0 mm 2 mps 571 mmHg 80%
    08:00 +15°C° 0.1 mm 2 mps 571 mmHg 73%
    09:00 +17°C° 0.1 mm 3 mps 572 mmHg 67%
    10:00 +18°C° 0.1 mm 3 mps 573 mmHg 61%
    11:00 +19°C° 0.1 mm 4 mps 573 mmHg 58%
    12:00 +20°C° 0.1 mm 4 mps 573 mmHg 56%
    13:00 +20°C° 0.1 mm 4 mps 573 mmHg 54%
    14:00 +20°C° 0.2 mm 4 mps 572 mmHg 55%
    15:00 +19°C° 0.2 mm 4 mps 571 mmHg 56%
    16:00 +19°C° 0.2 mm 4 mps 571 mmHg 57%
    17:00 +17°C° 0.2 mm 3 mps 571 mmHg 63%
    18:00 +15°C° 0.2 mm 2 mps 570 mmHg 70%
    19:00 +14°C° 0.2 mm 2 mps 570 mmHg 77%
    20:00 +13°C° 0 mm 2 mps 570 mmHg 77%
    21:00 +13°C° 0 mm 2 mps 571 mmHg 78%
    22:00 +13°C° 0 mm 2 mps 571 mmHg 79%
    23:00 +13°C° 0 mm 2 mps 571 mmHg 79%
    Show more